This is the latest recevied weather packets stored in our database for station/object WE8M. If no packets are shown the sender has not sent any weather packets the latest 10 day(s).
| Time | Temp. | Humidity | Pressure | Rain* | Wind** | Luminosity | Snow |
|---|---|---|---|---|---|---|---|
| 1777741565 | 10° C | 51% | 1017.3 hPa | 0 mm | - | - | - |
| 1777741262 | 10.56° C | 42% | 1017.6 hPa | 0 mm | - | - | - |
| 1777740958 | 11.11° C | 50% | 1017.5 hPa | 0 mm | - | - | - |
| 1777740656 | 10.56° C | 49% | 1017.5 hPa | 0 mm | - | - | - |
| 1777740352 | 11.11° C | 43% | 1017.6 hPa | 0 mm | - | - | - |
| 1777740049 | 11.11° C | 47% | 1017.8 hPa | 0 mm | - | - | - |
| 1777739744 | 10.56° C | 54% | 1017.6 hPa | 0 mm | - | - | - |
| 1777739442 | 10.56° C | 44% | 1017.7 hPa | 0 mm | - | - | - |
| 1777739139 | 11.11° C | 48% | 1018 hPa | 0 mm | - | - | - |
| 1777738836 | 11.11° C | 45% | 1018 hPa | 0 mm | - | - | - |
| 1777738532 | 11.67° C | 45% | 1017.9 hPa | 0 mm | - | - | - |
| 1777738230 | 10.56° C | 49% | 1018 hPa | 0 mm | - | - | - |
| 1777737928 | 10.56° C | 47% | 1018 hPa | 0 mm | - | - | - |
| 1777737626 | 10.56° C | 52% | 1018.2 hPa | 0 mm | - | - | - |
| 1777737324 | 11.11° C | 46% | 1017.9 hPa | 0 mm | - | - | - |
| 1777737021 | 10.56° C | 51% | 1017.9 hPa | 0 mm | - | - | - |
| 1777736716 | 10° C | 53% | 1018.1 hPa | 0 mm | - | - | - |
| 1777736072 | 9.44° C | 48% | 1018.2 hPa | 0 mm | - | - | - |
| 1777735768 | 9.44° C | 48% | 1018.1 hPa | 0 mm | - | - | - |
| 1777735466 | 9.44° C | 53% | 1018.2 hPa | 0 mm | - | - | - |
| 1777735164 | 9.44° C | 54% | 1018.3 hPa | 0 mm | - | - | - |
| 1777734860 | 9.44° C | 52% | 1018.2 hPa | 0 mm | - | - | - |
| 1777734558 | 9.44° C | 50% | 1018.2 hPa | 0 mm | - | - | - |
| 1777734254 | 9.44° C | 50% | 1018.3 hPa | 0 mm | - | - | - |
| 1777733951 | 9.44° C | 58% | 1018.2 hPa | 0 mm | - | - | - |
* Rain latest hour (hover to see other rain measurements)
** Current wind speed in m/s (hover to see current wind gust speed)